Regional Weather Roundup
Issued by NWS

Home | Current Version | Previous Version | Graphics & Text | Print | Product List | Glossary Off
Versions: 1 2 3 4 5 6 7 8 9 10 11 12 13 14 15 16 17 18 19 20 21 22 23 24 25 26 27 28 29 30 31 32 33 34 35 36 37 38 39 40 41 42 43 44 45 46 47 48 49 50

000
ASUS43 KDTX 210910
RWRMI
MICHIGAN HOURLY REGIONAL WEATHER ROUNDUP
NATIONAL WEATHER SERVICE DETROIT/PONTIAC MI
500 AM EDT MON MAY 21 2018

NOTE: "FAIR" INDICATES FEW OR NO CLOUDS BELOW 12,000 FEET WITH NO
SIGNIFICANT WEATHER AND/OR OBSTRUCTION TO VISIBILITY.

MIZ047>049-052>055-059>063-066>070-074>076-081>083-211000-
SOUTHEAST LOWER MICHIGAN

CITY           SKY/WX    TMP DP  RH WIND       PRES   REMARKS
ADRIAN         CLOUDY    54  51  90 E8        30.20S
ALMA           FOG       44  44 100 N5        30.24S VSB 3/4
ANN ARBOR      FAIR      52  48  86 NE3       30.20S
BAD AXE        FOG       35  35 100 CALM      30.25S VSB 1/2
CARO           FOG       39  38  96 CALM      30.24R VSB 1/2
DETROIT CITY   FAIR      48  42  80 N6        30.22S
DETROIT        MOCLDY    51  44  77 NE6       30.21S
FLINT          FOG       43  43 100 CALM      30.23S VSB 1/2
GROSSE ILE     FAIR      51  46  81 NE3       30.20S
HILLSDALE      CLOUDY    54  52  94 E5        30.18F FOG
HOWELL         FAIR      47  47  99 CALM      30.20F FOG

CITY           SKY/WX    TMP DP  RH WIND       PRES   REMARKS
JACKSON        CLOUDY    57  54  89 NE7       30.19F
LAMBERTVILLE   CLOUDY    53  48  84 CALM      30.20S
LANSING        FAIR      48  48 100 NE3       30.21F FOG
LAPEER         CLOUDY    38  38  99 S3        30.24R FOG
MASON          FAIR      50  49  95 NE3       30.20F FOG
MONROE         FAIR      50  47  91 CALM      30.20S
MT. CLEMENS    FAIR      44  44 100 N6          N/A
PONTIAC        FAIR      46  46 100 N3        30.20F FOG
PORT HOPE        N/A     37  36  96 SW3       30.23R
PORT HURON       N/A     37  36  93 CALM      30.24S FOG
TRI CITIES     FAIR      46  44  93 N6        30.24S
MIDLAND        FAIR      39  39 100 CALM      30.24S
TROY           FAIR      49  46  88 N5        30.23F
SAGINAW HB     FOG       41  41 100 CALM      30.24R VSB 1/4
$$
MIZ043>046-050>051-056>058-064>065-071>073-077>080-211000-
SOUTHWEST LOWER MICHIGAN

CITY           SKY/WX    TMP DP  RH WIND       PRES   REMARKS
BATTLE CREEK   CLOUDY    56  55  97 E6        30.18S FOG
BENTON HARBOR  MOCLDY    55  53  93 E3        30.15F
BIG RAPIDS     FOG       43  42  97 CALM      30.22S VSB 1/2
COLDWATER      CLOUDY    56  56 100 E8        30.18R FOG
FREMONT        FAIR      50  50  99 E8        30.20S
HOLLAND        FAIR      53  50  89 E7        30.18S
GRAND RAPIDS   FAIR      51  49  92 E8        30.19S
IONIA          FAIR      49  49 100 NE9       30.20F FOG
KALAMAZOO      CLOUDY    56  54  93 E6        30.18R FOG
LUDINGTON      FAIR      39  39 100 CALM      30.20F FOG
MARSHALL       CLOUDY    56  54  95 CALM      30.18S FOG
MOUNT PLEASANT FOG       46  46 100 CALM      30.23S VSB 1/4
MUSKEGON       FAIR      51  48  89 NE7       30.19S
SOUTH HAVEN    FAIR      55  53  94 E5        30.16F FOG
$$
MIZ016>042-211000-
NORTHERN LOWER MICHIGAN

CITY           SKY/WX    TMP DP  RH WIND       PRES   REMARKS
ALPENA         FAIR      40  39  97 CALM      30.24R
BEAVER ISLAND  FAIR      35  31  88 CALM      30.24R
BELLAIRE       FAIR      35  34  96 CALM      30.24F
CADILLAC       FAIR      37  36  97 CALM      30.22F
CHARLEVOIX     FAIR      40  40 100 E3        30.26S
FRANKFORT      FAIR      39  38  96 CALM      30.21F
GAYLORD        FAIR      38  35  89 CALM      30.23S
GRAYLING       FOG       36  36 100 CALM      30.24S VSB 1/4
HARBOR SPRINGS FAIR      38  38  99 N3        30.24S
HOUGHTON LAKE  FOG       40  39  97 CALM      30.25S VSB 1
MANISTEE       FAIR      41  40  96 E6        30.21F
PELLSTON       FAIR      33  32  96 CALM      30.25R
ROGERS CITY    FAIR      44  33  67 SW3       30.25R
TRAVERSE CITY  FAIR      39  36  89 CALM      30.23S
$$
MIZ007>008-015-211000-
EASTERN UPPER MICHIGAN

CITY           SKY/WX    TMP DP  RH WIND       PRES   REMARKS
KINROSS        FAIR      41  30  65 W3        30.23S
MACKINAC ISLAN FAIR      43  33  66 NW3       30.23R
NEWBERRY       FAIR      41  36  81 W3        30.22R
S. S. MARIE    FAIR      40  32  73 NE3       30.23R
MUNISING         N/A     42  33  70 S3        30.20S
$$
MIZ004>006-011>014-085-211000-
CENTRAL UPPER MICHIGAN

CITY           SKY/WX    TMP DP  RH WIND       PRES   REMARKS
MANISTIQUE     FAIR      35  34  94 CALM      30.23R
ESCANABA       FAIR      33  32  96 CALM      30.23R
SAWYER-GWINN   FAIR      41  31  67 CALM      30.21S
$$
MIZ001>003-009>011-084-211000-
WESTERN UPPER MICHIGAN

CITY           SKY/WX    TMP DP  RH WIND       PRES   REMARKS
IRON MOUNTAIN  FAIR      37  33  85 CALM      30.21S
HOUGHTON       FAIR      44  31  60 CALM      30.17S
COPPER HARBOR    N/A     45  35  68 SW5       30.17S
IRONWOOD       FAIR      50  35  56 S13       30.19S
$$

ABBREVIATIONS USED IN REMARKS
   TC - TEMPERATURE IN CELSIUS
  WCI - WIND CHILL INDEX
   HX - HEAT INDEX
  VSB - VISIBILITY





USA.gov is the U.S. government's official web portal to all federal, state and local government web resources and services.